237P/LINEAR (2023)

Japanese version
Home page
Updated on May 13, 2024

---------------------------------------------------------------------

* Profile

* Pictures

* Orbital Elements

Epoch 2024 Mar. 31.0 TT = JDT 2460400.5
T 2023 May 14.74202 TT                                  Rudenko
q   1.9875403            (2000.0)            P               Q
n   0.14982579     Peri.   25.30201     -0.00009751     +0.97546691
a   3.5108451      Node   245.35514     -0.95372992     -0.06628086
e   0.4338855      Incl.   14.01695     -0.30066464     +0.20993131
P   6.58
>From 2288 observations 2002 June 18-2024 Jan. 16, mean residual 0".7.

* Finding Charts

* Magnitudes Graph

        H = 15.0  G = 0.15                       [    ,-360]  (             - 2022 May  19)
        m1 = 3.0 + 5 log d + 30.0 log r(t - 20)  [-360, 390]  (2022 May  19 - 2024 June  7)
        H = 15.0  G = 0.15                       [ 390,    ]  (2024 June  7 -             )

---------------------------------------------------------------------

The orbital elements are published on M.P.E.C. 2024-D126.
The charts are made with StellaNavigator Ver.10 (AstroArts).
The magnitudes graphs are made with Comet for Windows.

---------------------------------------------------------------------

Copyright(C) Seiichi Yoshida (comet@aerith.net). All rights reserved.